This is the latest recevied weather packets stored in our database for station/object W4MLN-1. If no packets are shown the sender has not sent any weather packets the latest 10 day(s).
| Time | Temp. | Humidity | Pressure | Rain* | Wind** | Luminosity | Snow |
|---|---|---|---|---|---|---|---|
| 1777848104 | 14.44° C | 35% | 1015.3 hPa | 0 mm | - | 208 W/m² | - |
| 1777847805 | 14.44° C | 36% | 1015.4 hPa | 0 mm | - | 226 W/m² | - |
| 1777847504 | 14.44° C | 35% | 1015.4 hPa | 0 mm | - | 245 W/m² | - |
| 1777847205 | 14.44° C | 34% | 1015.4 hPa | 0 mm | - | 265 W/m² | - |
| 1777846902 | 14.44° C | 35% | 1015.6 hPa | 0 mm | - | 283 W/m² | - |
| 1777846602 | 14.44° C | 34% | 1015.6 hPa | 0 mm | - | 304 W/m² | - |
| 1777846302 | 14.44° C | 36% | 1015.6 hPa | 0 mm | - | 322 W/m² | - |
| 1777845999 | 14.44° C | 35% | 1015.6 hPa | 0 mm | - | 342 W/m² | - |
| 1777845699 | 14.44° C | 35% | 1015.4 hPa | 0 mm | - | 363 W/m² | - |
| 1777845399 | 14.44° C | 35% | 1015.6 hPa | 0 mm | - | 383 W/m² | - |
| 1777845099 | 14.44° C | 34% | 1015.6 hPa | 0 mm | - | 400 W/m² | - |
| 1777844799 | 15° C | 34% | 1015.7 hPa | 0 mm | - | 419 W/m² | - |
| 1777844499 | 15° C | 33% | 1015.7 hPa | 0 mm | - | 438 W/m² | - |
| 1777844199 | 14.44° C | 33% | 1015.6 hPa | 0 mm | - | 457 W/m² | - |
| 1777843900 | 14.44° C | 33% | 1015.6 hPa | 0 mm | - | 475 W/m² | - |
| 1777843599 | 15° C | 33% | 1015.8 hPa | 0 mm | - | 495 W/m² | - |
| 1777843297 | 15° C | 33% | 1015.6 hPa | 0 mm | - | 512 W/m² | - |
| 1777842997 | 15° C | 34% | 1015.8 hPa | 0 mm | - | 533 W/m² | - |
| 1777842697 | 15° C | 36% | 1015.8 hPa | 0 mm | - | 548 W/m² | - |
| 1777842397 | 14.44° C | 35% | 1015.8 hPa | 0 mm | - | 568 W/m² | - |
| 1777842097 | 14.44° C | 36% | 1015.8 hPa | 0 mm | - | 588 W/m² | - |
| 1777841797 | 14.44° C | 34% | 1015.8 hPa | 0 mm | - | 605 W/m² | - |
| 1777841498 | 14.44° C | 35% | 1015.8 hPa | 0 mm | - | 623 W/m² | - |
| 1777841197 | 14.44° C | 36% | 1015.9 hPa | 0 mm | - | 641 W/m² | - |
| 1777840898 | 14.44° C | 36% | 1015.9 hPa | 0 mm | - | 657 W/m² | - |
* Rain latest hour (hover to see other rain measurements)
** Current wind speed in m/s (hover to see current wind gust speed)